Flag for Netherlands Weather past 2 weeks in Amersfoort, Netherlands

Now
32 °F

Ice fog.


Feels Like: 24 °F
Forecast: 33 / 38 °F
Wind: 9 mph from West

Location: Deelen

Current Time: Jan 30, 2015 at 2:05:20 AM

Latest Report: Jan 30, 2015 at 1:25 AM


Visibility: 4 mi

Pressure: 28.68 "Hg

Humidity: 100%

Dew point: 32 °F

Location of AmersfoortLocation

Historic Weather in Amersfoort — Graph

°F

Amersfoort temperature yesterday

Maximum temperature yesterday: 37 °F (at 1:25 PM)
Minimum temperature yesterday: 32 °F (at 7:25 PM)
Average temperature yesterday: 34 °F

Past Weeks' High & Low Weather Summary

 TemperatureHumidityPressure
High50 °F (Jan 15, 11:25 AM)100% (Jan 15, 4:25 PM)30.39 "Hg (Jan 15, 4:25 PM)
Low21 °F (Jan 25, 3:25 AM)65% (Jan 17, 4:55 PM)28.68 "Hg (Jan 29, 10:55 PM)
Average35 °F91%29.88 "Hg
* Reported Jan 15 12:25 AM — Jan 30 12:55 AM, Amersfoort, Weather by CustomWeather, © 2014

Note: Actual official high and low records may vary slightly from our data, if they occured in-between our weather recording intervals... More about our weather records

Advertising

Amersfoort weather history for previous 24 hours

 ConditionsComfort  
Time TempWeatherWind HumidityBarometerVisibility
12:55 AM
Jan 30
32 °FLight snow. Low clouds.7 mph100%28.68 "Hg2 mi
12:25 AM32 °FLight snow. Partly cloudy.3 mph100%28.68 "Hg1 mi
11:55 PM
Jan 29
34 °FLight rain. Low clouds.8 mph93%28.68 "Hg2 mi
11:25 PM34 °FLight rain. Passing clouds.7 mph93%28.68 "Hg3 mi
10:55 PM32 °FIce fog.3 mph100%28.68 "Hg2 mi
10:25 PM32 °FIce fog.2 mph100%28.71 "Hg2 mi
9:55 PM32 °FSnow showers. Partly cloudy.3 mph100%28.71 "Hg2 mi
9:25 PM32 °FIce fog.3 mph100%28.71 "Hg4 mi
8:55 PM32 °FLight snow. Partly cloudy.5 mph100%28.74 "Hg4 mi
8:25 PM32 °FIce fog.7 mph100%28.74 "Hg4 mi
7:55 PM32 °FSnow showers. Partly cloudy.6 mph100%28.77 "Hg2 mi
7:25 PM32 °FLight snow. Partly cloudy.7 mph100%28.80 "Hg3 mi
6:55 PM34 °FLight snow. Mostly cloudy.12 mph93%28.80 "Hg2 mi
6:25 PM34 °FPartly cloudy.9 mph93%28.80 "HgN/A
5:55 PM34 °FLight snow. Mostly cloudy.16 mph93%28.82 "Hg1 mi
5:25 PM36 °FPartly cloudy.8 mph93%28.85 "HgN/A
4:55 PM34 °FDrizzle. Broken clouds.10 mph100%28.85 "HgN/A
4:25 PM34 °FLight rain. Broken clouds.15 mph93%28.88 "Hg4 mi
3:55 PM36 °FLight rain. Broken clouds.9 mph93%28.91 "HgN/A
3:25 PM36 °FThunderstorms. Broken clouds.14 mph93%28.94 "Hg4 mi
2:55 PM34 °FLight rain. Broken clouds.6 mph100%28.97 "Hg6 mi
2:25 PM34 °FRain showers. Broken clouds.20 mph93%28.97 "Hg3 mi
1:55 PM37 °FPassing clouds.18 mph87%29.00 "HgN/A
1:25 PM37 °FBroken clouds.13 mph87%29.03 "HgN/A
12:55 PM34 °FSprinkles. Broken clouds.16 mph93%29.03 "Hg1 mi
12:25 PM34 °FPartly sunny.8 mph100%29.06 "HgN/A
11:56 AM34 °FLight rain. Broken clouds.18 mph100%29.09 "Hg2 mi
11:25 AM34 °FLight rain. Cloudy.16 mph93%29.12 "Hg2 mi
10:55 AM34 °FLight rain. Cloudy.18 mph93%29.12 "Hg4 mi
10:25 AM36 °FBroken clouds.16 mph93%29.12 "HgN/A
9:55 AM34 °FPartly sunny.16 mph93%29.15 "HgN/A
9:25 AM34 °FBroken clouds.16 mph93%29.15 "HgN/A
8:55 AM34 °FLight rain. Partly sunny.17 mph93%29.18 "HgN/A
8:25 AM34 °FLight rain. Broken clouds.16 mph93%29.18 "Hg3 mi
7:55 AM34 °FLight rain. Partly cloudy.18 mph93%29.18 "Hg2 mi
7:25 AM34 °FPartly cloudy.16 mph93%29.21 "HgN/A
6:55 AM34 °FLight rain. Partly cloudy.16 mph93%29.21 "HgN/A
6:25 AM34 °FLight rain. Partly cloudy.17 mph93%29.21 "HgN/A
5:55 AM34 °FPartly cloudy.17 mph93%29.24 "HgN/A
5:25 AM34 °FLight snow. Partly cloudy.18 mph93%29.24 "Hg3 mi
4:55 AM34 °FPartly cloudy.17 mph93%29.27 "HgN/A
4:25 AM34 °FLight snow. Partly cloudy.20 mph87%29.30 "Hg4 mi
3:55 AM36 °FPassing clouds.18 mph81%29.30 "HgN/A
3:25 AM36 °FPassing clouds.17 mph81%29.33 "HgN/A
2:55 AM36 °FPartly cloudy.14 mph75%29.33 "HgN/A
2:25 AM34 °FPassing clouds.10 mph81%29.36 "HgN/A
Weather by CustomWeather, © 2014

See weather overviewHow to use our weather pages